Regional Weather Roundup
Issued by NWS Upton, NY

Home | Current Version | Previous Version | Text Only | Print | Product List | Glossary On
Versions: 1 2 3 4 5 6 7 8 9 10 11 12 13 14 15 16 17 18 19 20 21 22 23 24 25 26 27 28 29 30 31 32 33 34 35 36 37 38 39 40 41 42 43 44 45 46 47 48 49 50
000
ASUS41 KOKX 162005
RWROKX

REGIONAL WEATHER ROUNDUP
NATIONAL WEATHER SERVICE NEW YORK NY
400 PM EDT TUE SEP 16 2014

NOTE: "FAIR" INDICATES FEW OR NO CLOUDS BELOW 12,000 FEET WITH NO
SIGNIFICANT WEATHER AND/OR OBSTRUCTIONS TO VISIBILITY.

NYZ071-072-176-178-NJZ106-104-162100-
NEW YORK CITY METRO AREA


CITY           SKY/WX    TMP DP  RH WIND       PRES   REMARKS
CENTRAL PARK   CLOUDY    68  54  60 CALM      29.99S
LAGUARDIA APRT PTSUNNY   68  55  63 VRB5      29.96S
KENNEDY INTL   PTSUNNY   67  58  72 SE6       29.98S
NEWARK/LIBERTY PTSUNNY   71  54  54 VRB6      29.96F
BRNX BOT. GARD   N/A     68  54  60 N2        29.98R
TETERBORO      CLOUDY    71  50  47 CALM      29.95F
$$

NYZ177-179-078>081-162100-
LONG ISLAND NEW YORK

CITY           SKY/WX    TMP DP  RH WIND       PRES   REMARKS
FARMINGDALE    PTSUNNY   67  58  72 S3        29.97F
ISLIP          CLOUDY    64  56  75 SW5       29.96F
SHIRLEY        CLOUDY    64  58  80 VRB3      29.98F
WESTHAMPTON    CLOUDY    65  58  78 W6        29.98F
MONTAUK POINT    N/A     67  55  65 W7        29.98S
$$

NYZ052-065-067-162100-
HUDSON VALLEY

CITY           SKY/WX    TMP DP  RH WIND       PRES   REMARKS
WHITE PLAINS   PTSUNNY   67  52  58 NE6       29.97R
NEWBURGH       PTSUNNY   66  55  68 W8        29.99S
MONTGOMERY     CLOUDY    67  51  56 NW10      29.97S
POUGHKEEPSIE   CLOUDY    68  53  58 N6        29.96S
ALBANY         PTSUNNY   65  51  60 W8        29.98R
$$

NJZ001-105-106-008-010-013-015-019>022-104-162100-
NEW JERSEY

CITY           SKY/WX    TMP DP  RH WIND       PRES   REMARKS
NEWARK/LIBERTY PTSUNNY   71  54  54 VRB6      29.96F
TETERBORO      CLOUDY    71  50  47 CALM      29.95F
CALDWELL       CLOUDY    69  50  50 NW8       29.98R
MORRISTOWN     CLOUDY    68  55  64 N6        29.98R
SOMERVILLE     CLOUDY    71  54  54 N5        29.96S
LINDEN         MOCLDY    72  61  68 S5        29.99S
SUSSEX         PTSUNNY   69  52  54 N6        29.99S
ANDOVER          N/A     67  52  58 VRB3      29.99S
TRENTON        CLOUDY    69  53  56 N6        29.97S
MILLVILLE      PTSUNNY   76  53  44 N13       29.96S
ATLANTIC CITY  MOSUNNY   73  56  54 N13       29.96S
WRIGHTSTOWN    CLOUDY    69  56  65 N3        29.95F
TOMS RIVER     PTSUNNY   70  57  64 NE5       29.98S
BELMAR         PTSUNNY   64  55  72 NE6       29.98R
$$

PAZ047>061-062-071-162100-
EASTERN PENNSYLVANIA

CITY           SKY/WX    TMP DP  RH WIND       PRES   REMARKS
PHILADELPHIA   PTSUNNY   74  54  49 N14       29.97F
ALLENTOWN      CLOUDY    69  50  50 N9        29.99S
SCRANTON       CLOUDY    63  47  55 N6        30.02S
$$

CTZ002-004>006-009-010-012-RIZ004-006-007-MAZ004-011-015-162100-
SOUTHERN NEW ENGLAND
 IN CT

CITY           SKY/WX    TMP DP  RH WIND       PRES   REMARKS
BRADLEY INTL   CLOUDY    67  52  58 CALM      29.96S
HARTFORD       CLOUDY    67  53  61 VRB7      29.96S
DANBURY        CLOUDY    66  50  56 NW6       29.98S
WTRBRY/OXFORD  PTSUNNY   66  52  59 N6        29.98F
BRIDGEPORT     CLOUDY    67  57  70 S7        29.97S
MERIDEN        CLOUDY    68  52  56 N6        29.97S
NEW HAVEN      PTSUNNY   67  57  70 S6        29.97S
CHESTER        MOCLDY    64  55  72 SW3       29.98S
GROTON         CLOUDY    65  57  75 W6        29.96S
WILLIMANTIC    CLOUDY    65  54  67 W5        29.97S

 IN RI

CITY           SKY/WX    TMP DP  RH WIND       PRES   REMARKS
PROVIDENCE     PTSUNNY   68  52  56 W9        29.96S
BLOCK ISLAND   CLOUDY    66  52  59 W7        29.97S
WESTERLY       CLOUDY    66  52  60 SW7       29.97S

 IN MA

CITY           SKY/WX    TMP DP  RH WIND       PRES   REMARKS
BOSTON         LGT RAIN  64  53  67 SE6       29.96S
WORCESTER      CLOUDY    61  50  67 W8        29.98R
WESTFIELD      CLOUDY    66  51  58 W3        29.96S
PROVINCETOWN   CLOUDY    63  54  72 CALM      29.96S
NANTUCKET      SUNNY     66  51  58 SE9       29.96S
$$

ANZ330-335-338-340-345-350-353-355-162100-
COASTAL MARINE OBSERVATIONS


STATION/POSITION TIME  SKY/WX   TEMP    WIND        PRES    VSBY  WAVE
                                AIR SEA DIR/SP/G                  HT/PER
                 (UTC)          (F)     (DEG/KT/KT) (MB)    (MI)  (FT/S)
NY HARB ENTRANCE NOT AVBL
4S FIRE IS       NOT AVBL
23SW MTP         2000                                 N/A           2/ 7
HUDSON CANYON    2000            66 73   20/  8/ 10 1014.0          2/ 8
EXECUTION ROCKS  2000            69 71  200/  4/  6   N/A
WESTERN LI SOUND 2000            67     180/  4/  4   N/A           0
CENTRAL LI SOUND 1900            64 71  230/  4/  6   N/A           0
EASTERN LI SOUND 1900            67 69  250/  4/  6   N/A
ROBBINS REEF     2000            66     180/  7/  8 1013.6
$$


>>>>>>>>>>>>>>>>>>>>>>>>>>>> KEY <<<<<<<<<<<<<<<<<<<<<<<<<<<
>                                                          <
>     SKY/WX - SKY CONDITION/PRESENT WEATHER               <
>     TMP    - TEMPERATURE IN FAHRENHEIT                   <
>     DP     - DEWPOINT IN FAHRENHEIT                      <
>     RH     - RELATIVE HUMIDITY IN PERCENT                <
>     WIND   - DIRECTION AND SPEED IN MPH                  <
>     PRES   - MEAN SEA LEVEL PRESSURE IN INCHES OF HG     <
>     WCI    - WIND CHILL INDEX                            <
>     VSB    - VISIBILITY IN MILES                         <
>     HX     - HEAT INDEX                                  <
>     TC     - TEMPERATURE IN CELSIUS                      <
>     VRB    - VARIABLE WIND DIRECTION                     <
>                                                          <
>>>>>>>>>>>>>>>>>>>>>>>>>>>> KEY <<<<<<<<<<<<<<<<<<<<<<<<<<<




USA.gov is the U.S. government's official web portal to all federal, state and local government web resources and services.